User: anonymous   Login
Location: Aressy
(43.2833°N, 0.3167°W)
Time: 16:59:27
(UTC+00:00)
Language:

Cosmos 1809 Rocket - Orbit

View from above orbital plane
View from above orbital plane
View from above satellite
View from above satellite

Ground track
Ground track

The orbit data is extracted from the following two-line orbital elements,

1 17242U 86101B   21112.78062670  .00000024  00000-0  78910-5 0  9991
2 17242  82.5319 345.7991 0016335  72.5708 358.7476 13.83296423733780
Epoch (UTC): 22 April 2021 18:44:06
Eccentricity: 0.0016335
inclination: 82.5319°
perigee height: 940 km
apogee height: 964 km
right ascension of ascending node: 345.7991°
argument of perigee: 72.5708°
revolutions per day: 13.83296423
mean anomaly at epoch: 358.7476°
orbit number at epoch: 73378

The dashed part of the orbit path shows where the satellite is in the earth's shadow,  

DLR